Regional Weather Roundup
Issued by NWS

Home | Current Version | Previous Version | Graphics & Text | Print | Product List | Glossary On
Versions: 1 2 3 4 5 6 7 8 9 10 11 12 13 14 15 16 17 18 19 20 21 22 23 24 25 26 27 28
000
ASUS45 KGTF 262210
RWRMT
MONTANA HOURLY WEATHER ROUNDUP
NATIONAL WEATHER SERVICE GREAT FALLS MT
400 PM MDT SUN APR 26 2015

NOTE: "FAIR" INDICATES FEW OR NO CLOUDS BELOW 12000 FEET WITH NO
SIGNIFICANT WEATHER AND/OR OBSTRUCTIONS TO VISIBILITY.

MTZ001>007-043-262300-
WEST OF THE DIVIDE

CITY           SKY/WX    TMP DP  RH WIND       PRES   REMARKS
KALISPELL      CLOUDY    56  32  40 SW8       30.12R
MISSOULA       LGT RAIN  44  40  85 S5        30.18R
BUTTE          CLOUDY    36  30  79 W8        30.13R WCI  30
DEER LODGE       N/A     39  28  65 N7        30.19R
EUREKA           N/A     55  34  44 SW6       30.15S
HAMILTON         N/A     48  32  53 N1        30.16R
LIBBY            N/A     54  30  40 N5        30.15S
$$

MTZ008-052>055-262300-
SOUTHWEST MONTANA

CITY           SKY/WX    TMP DP  RH WIND       PRES   REMARKS
BOZEMAN        LGT RAIN  40  37  89 SW13      30.10R FOG
DILLON         CLOUDY    40  35  83 SE7       30.09R
$$

MTZ009-010-012-014-046-048-049-054-262300-
EAST SLOPES AND CENTRAL MONTANA

CITY           SKY/WX    TMP DP  RH WIND       PRES   REMARKS
CUT BANK       CLOUDY    44  25  47 CALM      30.16S
GREAT FALLS    CLOUDY    43  27  53 CALM      30.18S
MALMSTROM AFB  CLOUDY    41  28  60 W5        30.20R
HELENA         CLOUDY    39  33  79 W8        30.17R
$$

MTZ011-013-016-021-045-047-050-051-262300-
NORTH CENTRAL MONTANA

CITY           SKY/WX    TMP DP  RH WIND       PRES   REMARKS
HAVRE          CLOUDY    42  29  59 CALM      30.21R
LEWISTOWN      CLOUDY    39  30  70 VRB3      30.17S
CHINOOK          N/A     43  30  61 W9        30.21S
FORT BENTON      N/A     45  27  49 CALM      30.22R
$$

MTZ017>020-022>042-056>058-061-062-262300-
EASTERN PLAINS

CITY           SKY/WX    TMP DP  RH WIND       PRES   REMARKS
BAKER          LGT RAIN  43  40  89 NE10      30.11R
BILLINGS       LGT RAIN  36  34  92 NE16      30.15R WCI  26
GLASGOW        CLOUDY    43  33  68 NW12      30.18R
JORDAN           N/A     42  31  64 N10       30.18R
LIVINGSTON     CLOUDY    41  34  76 E21       30.09R
MILES CITY     LGT RAIN  43  38  82 N13       30.14R
SIDNEY         PTSUNNY   52  36  54 NW9       30.14R
WOLF POINT     CLOUDY    49  35  58 W5        30.16R
BIG TIMBER       N/A     37  36  93 N8        30.14R WCI  31
FORSYTH          N/A     43  37  81 N7        30.15R
PLENTYWOOD       N/A     50  34  53 NW9       30.13S
POPLAR           N/A     48  36  61 N7        30.16R
$$

REGIONAL REPORTS...DAKOTAS

CITY           SKY/WX    TMP DP  RH WIND       PRES   REMARKS
WILLISTON      MOSUNNY   56  35  45 VRB3      30.13S
MINOT          CLOUDY    48  45  89 SE5       30.12S
DICKINSON      LGT RAIN  44  41  89 NE9       30.10R
BEACH          CLOUDY    45  39  81 NE6       30.12S
CROSBY         FAIR      50  36  57 CALM      30.14R
WATFORD CITY   CLOUDY    52  37  58 E3        30.10S
BISMARCK       CLOUDY    59  43  55 NE3       30.09S
GRAND FORKS    MOSUNNY   68  25  19 E5        30.10S
FARGO          SUNNY     67  25  20 CALM      30.09F
BUFFALO SD       N/A     47  46  97 NE16      29.99S
RAPID CITY     LGT RAIN  51  46  83 CALM      30.03R
$$

REGIONAL REPORTS...WYOMING/IDAHO/WASHINGTON

CITY           SKY/WX    TMP DP  RH WIND       PRES   REMARKS
GILLETTE       LGT RAIN  42  40  92 N13       30.02R
SHERIDAN       LGT RAIN  41  37  86 N6        30.09S
BUFFALO WY     LGT RAIN  41  37  86 N17G26    30.06S
CODY           CLOUDY    39  36  87 N18       30.06R WCI  30
YELLOWSTONE LA   N/A     38  31  76 VRB3      30.02R
IDAHO FALLS    PTSUNNY   52  36  54 SW15      30.03S
SALMON         CLOUDY    48  30  49 N13       30.10R
BOISE          SUNNY     60  22  23 NW22G29   30.11S
SPOKANE        PTSUNNY   54  27  35 W9        30.19R
$$

REGIONAL REPORTS...ALBERTA

CITY           SKY/WX    TMP DP  RH WIND       PRES   REMARKS
EDMONTON       SUNNY     50  19  29 S13       30.11S
CALGARY        MOSUNNY   54  23  30 S8        30.08F
LETHBRIDGE     PTSUNNY   48  27  43 SE6       30.15F
MEDICINE HAT   CLOUDY    46  32  57 SW9       30.18S
$$

REGIONAL REPORTS...SASKATCHEWAN

CITY           SKY/WX    TMP DP  RH WIND       PRES   REMARKS
SWIFT CURRENT  PTSUNNY   46  34  61 NW13      30.13S
REGINA         CLOUDY    41  34  75 NW14      30.15R
SASKATOON      CLOUDY    39  30  70 NW7       30.15R
$$



USA.gov is the U.S. government's official web portal to all federal, state and local government web resources and services.